Location: NovaLab Observatory
(42.8167°N, 71.2500°W)
Time: 07:16:33
(UTC-05:00)

Daily predictions for brighter satellites

Satellite Brightness Start Highest point End
(mag) Time Altitude Azimuth Time Altitude Azimuth Time Altitude Azimuth
YAOGAN 1 3.7 16:40:50 10° ESE 16:44:16 23° ENE 16:47:42 10° NNE
IRAS Rocket 4.2 16:41:44 10° SSE 16:47:17 79° ENE 16:52:49 10° NNW
Meteor 1-28 Rocket 4.1 16:45:33 10° NE 16:48:47 27° E 16:51:59 10° SSE
Cosmos 1484 Rocket 3.0 16:47:24 10° SSE 16:51:06 47° ENE 16:54:53 10° N
CENTAUR R/B 2.7 16:45:53 10° SW 16:51:55 84° NW 16:58:53 10° NE
SJ-12 4.1 16:49:24 10° S 16:53:33 80° W 16:57:43 10° NNW
Cosmos 1606 4.4 16:51:39 10° ESE 16:53:49 15° E 16:55:58 10° NE
Cosmos 1437 2.9 16:52:35 10° S 16:55:39 49° E 16:58:45 10° NNE
Cosmos 1862 4.3 16:54:07 10° NNW 16:58:02 51° W 17:01:56 10° S
BREEZE-M R/B 2.6 16:58:27 10° NW 17:00:54 43° NNE 17:04:30 10° E
Cosmos 2082 Rocket 3.1 16:59:22 10° N 17:04:07 26° NE 17:08:48 10° ESE
CSL-04 Rocket 3.7 17:01:20 10° SSE 17:06:37 88° WSW 17:12:00 10° NNW
ERBS 2.3 17:04:16 10° NW 17:07:40 88° NE 17:11:05 10° SE
Cosmos 468 Rocket 4.2 17:03:32 10° NNW 17:08:43 78° WSW 17:13:50 10° SSE
Cosmos 1782 4.0 17:06:24 10° SE 17:09:36 23° E 17:12:49 10° NE
Meteor 2-10 Rocket 4.4 17:05:10 10° SSW 17:10:15 53° WNW 17:15:35 10° N
Okean 2 Rocket 4.4 17:11:37 10° NNE 17:14:52 19° ENE 17:18:08 10° ESE
Cosmos 972 Rocket 4.1 17:10:19 10° NNW 17:15:15 74° WSW 17:20:09 10° S
METEOR-M 4.4 17:12:09 10° SE 17:17:13 46° ENE 17:22:18 10° N
ALOS 3.2 17:13:40 10° ESE 17:17:31 26° ENE 17:21:23 10° N
Cosmos 1340 3.8 17:14:20 10° SSW 17:17:58 45° WNW 17:21:37 10° N
GENESIS II 4.4 17:14:31 10° NW 17:18:26 76° WSW 17:22:19 10° SSE
SMAP 3.4 17:22:02 10° S 17:26:40 70° WSW 17:31:19 10° NNW
Cosmos 2233 Rocket 4.0 17:22:29 10° S 17:28:45 87° E 17:35:01 10° N
Cosmos 1763 Rocket 3.5 17:23:38 10° NNW 17:28:54 87° WSW 17:34:01 10° SSE
Cosmos 1908 Rocket 3.4 17:25:26 10° N 17:29:46 67° E 17:34:04 10° SSE
SKYMED 2 3.9 17:26:12 10° NNE 17:30:21 43° E 17:34:29 10° S
ERS-2 2.2 17:27:23 10° SSE 17:30:59 55° ENE 17:34:36 10° N
Cosmos 1733 Rocket 4.2 17:27:45 10° NNW 17:32:01 47° W 17:36:17 10° SSW
Cosmos 972 4.3 17:29:01 10° NNW 17:34:06 84° ENE 17:38:58 10° SSE
Cosmos 1844 Rocket 4.0 17:29:53 10° SW 17:35:06 38° WNW 17:40:19 10° N
Sich 1 Rocket 3.5 17:37:19 10° N 17:41:46 76° E 17:46:12 10° SSE
Meteor 1-14 Rocket 4.4 17:37:44 10° NNW 17:43:25 76° W 17:48:58 10° S
CZ-4C R/B 3.5 17:40:38 10° NNW 17:46:56 34° NE 17:50:24 24° E
SL-27 R/B 2.1 17:44:36 10° NNW 17:47:57 79° ENE 17:51:16 10° SSE
Cosmos 1503 Rocket 4.2 17:44:01 10° S 17:49:06 51° ESE 17:52:26 21° NE
FENGYUN 3A 3.6 17:49:26 10° SSE 17:54:45 60° ENE 18:00:05 10° N
USA 234 3.3 17:52:30 24° ENE 17:56:40 65° SE 18:03:08 10° SW
Cosmos 540 Rocket 3.4 17:53:16 10° NNW 17:58:27 67° ENE 18:03:34 10° SSE
COSMOS 2455 3.8 17:54:27 10° SW 18:00:10 44° NW 18:05:57 10° NNE
Meteor 1-11 Rocket 4.0 17:56:38 10° N 18:02:16 44° ENE 18:07:44 10° SE
Cosmos 836 Rocket 4.4 17:57:02 10° NNW 18:02:17 70° ENE 18:07:32 10° SSE
Okean 1-7 2.9 17:58:05 10° S 18:02:27 79° E 18:06:16 14° N
Cosmos 1833 Rocket 2.6 17:57:02 10° NNW 18:02:41 70° ENE 18:08:17 10° SSE
Cosmos 841 Rocket 4.1 17:58:15 10° NNW 18:03:27 58° WSW 18:08:35 10° S
Cosmos 2297 3.7 17:57:52 10° S 18:03:29 62° ESE 18:06:35 27° NE
Cosmos 1633 2.7 18:00:46 10° NNW 18:04:25 73° W 18:08:04 10° S
CZ-4 R/B 3.5 18:04:19 10° SSW 18:07:40 28° W 18:11:01 10° NW
Cosmos 1891 Rocket 4.3 18:03:09 10° S 18:09:16 68° E 18:15:18 10° NNE
Cosmos 2278 Rocket 2.9 18:03:54 10° SW 18:09:25 52° WNW 18:14:53 11° NNE
Lacrosse 5 3.8 18:06:48 10° NW 18:10:08 17° N 18:11:48 15° NNE
Cosmos 44 Rocket 3.4 18:08:09 10° NNW 18:12:54 50° NE 18:13:12 49° ENE
Cosmos 1782 Rocket 3.8 18:09:50 10° NNW 18:14:09 68° W 18:18:28 10° S
COSMO-SKYMED 1 3.2 18:14:12 10° N 18:18:28 56° WNW 18:22:42 10° SSW
YAOGAN 1 4.3 18:16:17 10° SSW 18:20:11 33° W 18:24:08 10° NNW
SPOT 3 Rocket 4.0 18:19:27 10° S 18:24:38 63° WSW 18:29:49 10° NNW
Cosmos 292 Rocket 3.6 18:21:22 10° NNW 18:26:08 74° ENE 18:26:26 72° ESE
Cosmos 1354 Rocket 4.1 18:21:45 10° SSW 18:27:01 76° WNW 18:29:47 29° NNE
Nadezhda 4 Rocket 3.8 18:21:04 10° N 18:27:09 62° E 18:33:11 10° SSE
Timation 2 Rocket 4.2 18:21:56 10° NNW 18:28:34 51° ENE 18:29:15 49° ENE
BREEZE-M DEB (TANK) 3.9 18:26:38 10° WSW 18:27:47 30° W 18:27:47 30° W
Cosmos 1606 4.2 18:25:46 10° SW 18:29:15 35° WNW 18:32:00 15° NNW
Cosmos 2034 Rocket 3.9 18:23:13 10° S 18:29:35 83° E 18:35:58 10° N
Cosmos 783 Rocket 4.4 18:27:18 10° NNW 18:32:24 65° NE 18:32:24 65° NE
Cosmos 2221 Rocket 4.3 18:28:59 10° SSW 18:33:16 53° W 18:36:17 19° N
CENTAUR R/B 4.4 18:38:35 10° W 18:43:44 24° NNW 18:48:01 15° NNE
Cosmos 44 3.4 18:41:02 10° NW 18:45:15 70° WNW 18:45:15 70° WNW
Cosmos 2082 Rocket 2.9 18:42:59 10° NW 18:48:30 52° WSW 18:53:57 10° S
Okean 2 Rocket 4.4 18:48:53 10° NNW 18:53:08 41° W 18:57:22 10° SSW
ALOS 3.9 18:50:36 10° SSW 18:54:49 34° W 18:59:04 10° NNW
Thor Agena Rocket 4.2 18:59:06 47° SSW 18:59:06 47° SSW 19:02:41 10° SSW
FengYun 1-2 T 4.4 18:55:40 27° S 18:58:43 70° WSW 19:04:18 10° NNW
Meteor 1-27 Rocket 4.4 19:02:28 10° SSW 19:08:14 57° WNW 19:11:10 29° N
CZ-4C R/B 3.1 19:28:52 10° NW 19:35:39 68° W 19:35:39 68° W
USA 234 4.0 19:39:52 46° NW 19:39:52 46° NW 19:45:40 10° W
